DELTA 1 DEB, 42584

Orbit data source: Space-Track

DELTA 1 DEB, 42584 is space debris in SSO originally from a launch on Tue, 06 Nov 1973 UTC launched from the Air Force Western Test Range (AFWTR). Debris objects in space refer to the collection of defunct objects orbiting the Earth. Examples of debris include non-operational satellites, rocket bodies, and fragments generated from explosions, collisions, or faulty payload assembly.

Loading next visibility...
Identifier
42584, 1973-086HY
Orbit
SSO
Country
Flag of USUS
Related business
Manufacturer
Unknown
Mission
Spacecraft
Bus & Motor
Unknown
Mass
Unknown
Launch date (UTC)
1973-11-06 (52 years ago)
Launch vehicle
Unknown
Launch site
Air Force Western Test Range (AFWTR)
Object type
Payload
Rocket body
Debris
Shape & HBR
Unknown shape, 0.1 m
Radar Cross Section
Small (<0.1 m²)

Expand to show TLE details & history
Last TLE update: 1 day ago

TLE from 1 day ago
0 DELTA 1 DEB
1 42584U 73086HY  26122.01966667 -.00000031  00000-0  11911-3 0  9992
2 42584 102.3968 137.2072 0020267  56.2461 328.8081 12.36924109561792
Epoch: 2026-05-02T00:28Z
TLE epoch observation values (Epoch: 2026-05-02T00:28:19.200Z)
Latitude
24.34011°
Longitude
-95.49482°
Altitude
1,508.586 km
Speed
7.119 km/s
True Right ascension
08h 46m 06s
True Declination
24° 13' 25"
Sunlit
Object was in daylight at epoch
Visualization orbit readout
Latitude
Unknown
Longitude
Unknown
Altitude
Unknown
Speed
Unknown
Apparent Right ascension
Unknown
Apparent Declination
Unknown
Sunlit
N/A
Visualization observer readout
Local Sidereal Time
09:17:59
Azimuth
Unknown
Elevation
Unknown
Doppler factor
Unknown
Orbital elements
Apogee altitude
1,533.273 km
Perigee altitude
1,501.27 km
Semi-major axis
7,895.409 km
Eccentricity
0.00203
Inclination
102.3968°
RAAN
137.2072°
Arg. of periapsis
56.2461°
True anomaly
328.68756°
Mean anomaly
328.8081°
Eccentric anomaly
328.74786°
Mean motion
3.09372 °/min
Orbital period
116.36 mins
BSTAR
0.00011911
Loading maneuver chart data...
Computing Atmospheric mass density...
Loading historical data...
Loading historical data...
Loading historical data...
Loading historical data...
Loading historical data...
Loading historical data...
Loading historical data...

Documentation

Showing up to 5 results
|